This demonstration page uses our WeatherBlox Daily Observations layout. Learn more.

Left ArrowRight Arrow

Hourly Observations for March 28, 2015

Temp ( °F °C ) Dew Point ( °F °C ) Humidity (%) Winds ( mph kmh ) Pressure ( in mb ) Visibility ( mi km ) Precip ( " mm )
12:15 am 00:15 Partly Cloudy 23 -5 5 -15 46 46 N 14 22 30.24 1024 10 16 N/A
12:36 am 00:36 Partly Cloudy 21 -6 7 -14 54 54 N 12 19 30.24 1024 10 16 N/A
12:56 am 00:56 Partly Cloudy 21 -6 7 -14 54 54 N 12 19 30.24 1024 10 16 N/A
1:15 am 01:15 Clear 21 -6 7 -14 54 54 N 9 15 30.27 1025 10 16 N/A
1:36 am 01:36 Clear 21 -6 7 -14 54 54 N 9 15 30.27 1025 10 16 N/A
1:56 am 01:56 Clear 21 -6 7 -14 54 54 N 9 15 30.24 1024 10 16 N/A
2:16 am 02:16 Clear 21 -6 9 -13 58 58 N 9 15 30.24 1024 10 16 N/A
2:36 am 02:36 Clear 21 -6 9 -13 58 58 N 9 15 30.27 1025 10 16 N/A
2:55 am 02:55 Clear 19 -7 9 -13 63 63 N 8 13 30.27 1025 10 16 N/A
3:16 am 03:16 Clear 19 -7 9 -13 63 63 N 7 11 30.27 1025 10 16 N/A
3:36 am 03:36 Clear 19 -7 9 -13 63 63 NNW 7 11 30.27 1025 10 16 N/A
3:55 am 03:55 Clear 18 -8 9 -13 68 68 NNW 5 7 30.24 1024 10 16 N/A
4:16 am 04:16 Clear 18 -8 7 -14 62 62 NW 6 9 30.27 1025 10 16 N/A
4:36 am 04:36 Clear 18 -8 7 -14 62 62 NW 5 7 30.27 1025 10 16 N/A
4:55 am 04:55 Clear 18 -8 9 -13 68 68 NNW 6 9 30.27 1025 10 16 N/A
5:16 am 05:16 Clear 18 -8 9 -13 68 68 NNW 6 9 30.27 1025 10 16 N/A
5:36 am 05:36 Clear 19 -7 9 -13 63 63 N 8 13 30.27 1025 10 16 N/A
5:55 am 05:55 Clear 19 -7 9 -13 63 63 N 7 11 30.27 1025 10 16 N/A
6:16 am 06:16 Clear 19 -7 9 -13 63 63 N 8 13 30.27 1025 10 16 N/A
6:36 am 06:36 Clear 19 -7 9 -13 63 63 N 7 11 30.27 1025 10 16 N/A
6:55 am 06:55 Clear 19 -7 9 -13 63 63 NNW 6 9 30.27 1025 10 16 N/A
7:16 am 07:16 Clear 18 -8 9 -13 68 68 NNW 3 6 30.27 1025 10 16 N/A
7:36 am 07:36 Sunny 18 -8 9 -13 68 68 NNW 5 7 30.27 1025 10 16 N/A
7:55 am 07:55 Sunny 19 -7 10 -12 68 68 N 6 9 30.30 1026 10 16 N/A
8:16 am 08:16 Sunny 19 -7 9 -13 63 63 N 7 11 30.30 1026 10 16 N/A
8:36 am 08:36 Sunny 21 -6 10 -12 63 63 N 8 13 30.30 1026 10 16 N/A
8:55 am 08:55 Sunny 23 -5 9 -13 54 54 N 9 15 30.33 1027 10 16 N/A
9:16 am 09:16 Sunny 23 -5 9 -13 54 54 NE 8 13 30.33 1027 10 16 N/A
9:35 am 09:35 Sunny 25 -4 10 -12 54 54 NNE 8 13 30.33 1027 10 16 N/A
9:56 am 09:56 Sunny 25 -4 9 -13 50 50 NE 8 13 30.33 1027 10 16 N/A
10:16 am 10:16 Sunny 27 -3 9 -13 46 46 NNE 7 11 30.30 1026 10 16 N/A
10:35 am 10:35 Sunny 27 -3 9 -13 46 46 ENE 5 7 30.36 1028 10 16 N/A
10:56 am 10:56 Sunny 28 -2 7 -14 40 40 NE 6 9 30.33 1027 10 16 N/A
11:16 am 11:16 Sunny 28 -2 3 -16 34 34 NE 7 11 30.33 1027 10 16 N/A
11:35 am 11:35 Sunny 28 -2 3 -16 34 34 N 6 9 30.33 1027 10 16 N/A
11:56 am 11:56 Partly Cloudy 30 -1 5 -15 34 34 NNE 8 13 30.33 1027 10 16 N/A
12:16 pm 12:16 Sunny 30 -1 3 -16 31 31 N 5 7 30.33 1027 10 16 N/A
12:35 pm 12:35 Sunny 30 -1 5 -15 34 34 NNE 5 7 30.33 1027 10 16 N/A
12:56 pm 12:56 Sunny 32 undefined 3 -16 29 29 ENE 7 11 30.33 1027 10 16 N/A
1:16 pm 13:16 Sunny 32 undefined 5 -15 32 32 N 8 13 30.33 1027 10 16 N/A
1:35 pm 13:35 Sunny 32 undefined 3 -16 29 29 NNW 3 6 30.33 1027 10 16 N/A
1:56 pm 13:56 Sunny 32 undefined 3 -16 29 29 N N/A 30.33 1027 10 16 N/A
2:16 pm 14:16 Sunny 34 1 5 -15 29 29 N 8 13 30.33 1027 10 16 N/A
2:35 pm 14:35 Sunny 34 1 3 -16 27 27 NNW 7 11 30.33 1027 10 16 N/A
2:56 pm 14:56 Sunny 34 1 N/A 23 23 N N/A 30.33 1027 10 16 N/A
3:16 pm 15:16 Sunny 34 1 -2 -19 21 21 N N/A 30.33 1027 10 16 N/A
3:35 pm 15:35 Sunny 36 2 N/A 21 21 NNE 8 13 30.33 1027 10 16 N/A
3:56 pm 15:56 Sunny 36 2 N/A 21 21 ENE 5 7 30.33 1027 10 16 N/A
4:15 pm 16:15 Sunny 36 2 -2 -19 20 20 NW 7 11 30.33 1027 10 16 N/A
4:36 pm 16:36 Sunny 36 2 -4 -20 18 18 N N/A 30.33 1027 10 16 N/A
4:56 pm 16:56 Sunny 36 2 -2 -19 20 20 N 6 9 30.33 1027 10 16 N/A
5:15 pm 17:15 Sunny 37 3 N/A 20 20 NNW 3 6 30.30 1026 10 16 N/A
5:36 pm 17:36 Sunny 37 3 -2 -19 18 18 N 3 6 30.30 1026 10 16 N/A
5:56 pm 17:56 Sunny 37 3 -4 -20 17 17 N 6 9 30.33 1027 10 16 N/A
6:15 pm 18:15 Sunny 37 3 -2 -19 18 18 N 3 6 30.33 1027 10 16 N/A
6:36 pm 18:36 Sunny 36 2 N/A 21 21 NE 7 11 30.33 1027 10 16 N/A
6:55 pm 18:55 Sunny 36 2 -4 -20 18 18 N N/A 30.33 1027 10 16 N/A
7:16 pm 19:16 Sunny 34 1 N/A 23 23 NE 3 6 30.33 1027 10 16 N/A
7:35 pm 19:35 Sunny 34 1 -2 -19 21 21 NNE 5 7 30.33 1027 10 16 N/A
7:56 pm 19:56 Sunny 32 undefined 3 -16 29 29 NE 5 7 30.33 1027 10 16 N/A
8:16 pm 20:16 Clear 32 undefined 7 -14 34 34 ENE 3 6 30.33 1027 10 16 N/A
8:36 pm 20:36 Clear 30 -1 5 -15 34 34 ENE 3 6 30.33 1027 10 16 N/A
8:56 pm 20:56 Clear 28 -2 9 -13 43 43 NE 5 7 30.33 1027 10 16 N/A
9:15 pm 21:15 Clear 28 -2 12 -11 51 51 NE 3 6 30.36 1028 10 16 N/A
9:36 pm 21:36 Clear 28 -2 9 -13 43 43 NE 5 7 30.36 1028 10 16 N/A
9:55 pm 21:55 Clear 27 -3 10 -12 50 50 ENE 5 7 30.39 1029 10 16 N/A
10:16 pm 22:16 Clear 27 -3 10 -12 50 50 ENE 3 6 30.39 1029 10 16 N/A
10:36 pm 22:36 Clear 27 -3 12 -11 54 54 N N/A 30.39 1029 10 16 N/A
10:56 pm 22:56 Clear 27 -3 10 -12 50 50 E 3 6 30.39 1029 10 16 N/A
11:16 pm 23:16 Clear 27 -3 12 -11 54 54 N N/A 30.39 1029 10 16 N/A

Powered by AerisWeather